Location: Ferques
(50.8300°N, 1.7599°E)
Time: 22:18:24
(UTC+00:00)

Cosmos 1733 - Pass Details

Date: 19 May 2025
Orbit: 375 x 381 km, 82.5° (Epoch: 18 June)

Event Time Altitude Azimuth Distance (km) Brightness Sun altitude
Rises 20:32:03 0° 356° (N) 2,312 7.3 -7.0°
Reaches altitude 10° 20:34:10 10° 5° (N) 1,448 6.1 -7.2°
Maximum altitude 20:37:06 36° 74° (ENE) 641 3.4 -7.6°
Enters shadow 20:39:54 11° 143° (SE) 1,385 4.7 -7.9°
